<?xml version="1.0" encoding="UTF-8" standalone="no" ?>
<gpx xmlns="http://www.topografix.com/GPX/1/1" xmlns:xsi="http://www.w3.org/2001/XMLSchema-instance" xsi:schemaLocation="http://www.topografix.com/GPX/1/1 http://www.topografix.com/GPX/1/1/gpx.xsd" version="1.1" creator="VisuGPX - https://www.visugpx.com">
  <metadata>
    <name>Aigrefeuille_BourgEtMaine_7-11km</name>
    <desc><![CDATA[gnerando idor:7345184_7345399_7348406]]></desc>
  </metadata>
  <trk>
    <name><![CDATA[Aigrefeuille_ClocherAclocher_7.8km-7348406]]></name>
    <extensions>
      <line xmlns="http://www.topografix.com/GPX/gpx_style/0/2">
        <color>0000FF</color>
        <width>4</width>
      </line>
    </extensions>
    <trkseg>
      <trkpt lat="47.07732" lon="-1.39788">
        <ele>38</ele>
        <time>2023-10-29T17:08:04Z</time>
      </trkpt>
      <trkpt lat="47.07713" lon="-1.3978">
        <ele>38</ele>
        <time>2023-10-29T17:08:30Z</time>
      </trkpt>
      <trkpt lat="47.07692" lon="-1.39847">
        <ele>41</ele>
        <time>2023-10-29T17:09:37Z</time>
      </trkpt>
      <trkpt lat="47.0772" lon="-1.39889">
        <ele>42</ele>
        <time>2023-10-29T17:10:31Z</time>
      </trkpt>
      <trkpt lat="47.07722" lon="-1.39914">
        <ele>44</ele>
        <time>2023-10-29T17:10:54Z</time>
      </trkpt>
      <trkpt lat="47.07699" lon="-1.39944">
        <ele>44</ele>
        <time>2023-10-29T17:11:35Z</time>
      </trkpt>
      <trkpt lat="47.07656" lon="-1.39969">
        <ele>45</ele>
        <time>2023-10-29T17:12:36Z</time>
      </trkpt>
      <trkpt lat="47.07649" lon="-1.39957">
        <ele>44</ele>
        <time>2023-10-29T17:12:51Z</time>
      </trkpt>
      <trkpt lat="47.0764" lon="-1.39944">
        <ele>44</ele>
        <time>2023-10-29T17:13:08Z</time>
      </trkpt>
      <trkpt lat="47.0763" lon="-1.39931">
        <ele>43</ele>
        <time>2023-10-29T17:13:25Z</time>
      </trkpt>
      <trkpt lat="47.07622" lon="-1.39916">
        <ele>43</ele>
        <time>2023-10-29T17:13:43Z</time>
      </trkpt>
      <trkpt lat="47.07452" lon="-1.39893">
        <ele>38</ele>
        <time>2023-10-29T17:17:31Z</time>
      </trkpt>
      <trkpt lat="47.07239" lon="-1.40023">
        <ele>34</ele>
        <time>2023-10-29T17:22:38Z</time>
      </trkpt>
      <trkpt lat="47.07238" lon="-1.39995">
        <ele>34</ele>
        <time>2023-10-29T17:23:04Z</time>
      </trkpt>
      <trkpt lat="47.0725" lon="-1.39947">
        <ele>33</ele>
        <time>2023-10-29T17:23:50Z</time>
      </trkpt>
      <trkpt lat="47.07247" lon="-1.39815">
        <ele>32</ele>
        <time>2023-10-29T17:25:50Z</time>
      </trkpt>
      <trkpt lat="47.07231" lon="-1.39777">
        <ele>33</ele>
        <time>2023-10-29T17:26:31Z</time>
      </trkpt>
      <trkpt lat="47.07224" lon="-1.39763">
        <ele>33</ele>
        <time>2023-10-29T17:26:47Z</time>
      </trkpt>
      <trkpt lat="47.07221" lon="-1.39704">
        <ele>33</ele>
        <time>2023-10-29T17:27:41Z</time>
      </trkpt>
      <trkpt lat="47.07202" lon="-1.39682">
        <ele>33</ele>
        <time>2023-10-29T17:28:13Z</time>
      </trkpt>
      <trkpt lat="47.07205" lon="-1.39637">
        <ele>34</ele>
        <time>2023-10-29T17:28:54Z</time>
      </trkpt>
      <trkpt lat="47.07187" lon="-1.39577">
        <ele>35</ele>
        <time>2023-10-29T17:29:54Z</time>
      </trkpt>
      <trkpt lat="47.07137" lon="-1.39477">
        <ele>36</ele>
        <time>2023-10-29T17:31:46Z</time>
      </trkpt>
      <trkpt lat="47.07118" lon="-1.3951">
        <ele>37</ele>
        <time>2023-10-29T17:32:26Z</time>
      </trkpt>
      <trkpt lat="47.07097" lon="-1.39549">
        <ele>37</ele>
        <time>2023-10-29T17:33:11Z</time>
      </trkpt>
      <trkpt lat="47.07076" lon="-1.39583">
        <ele>36</ele>
        <time>2023-10-29T17:33:53Z</time>
      </trkpt>
      <trkpt lat="47.07049" lon="-1.39632">
        <ele>37</ele>
        <time>2023-10-29T17:34:50Z</time>
      </trkpt>
      <trkpt lat="47.07025" lon="-1.39669">
        <ele>38</ele>
        <time>2023-10-29T17:35:36Z</time>
      </trkpt>
      <trkpt lat="47.06946" lon="-1.39773">
        <ele>42</ele>
        <time>2023-10-29T17:37:58Z</time>
      </trkpt>
      <trkpt lat="47.06821" lon="-1.40026">
        <ele>44</ele>
        <time>2023-10-29T17:42:42Z</time>
      </trkpt>
      <trkpt lat="47.06779" lon="-1.40023">
        <ele>45</ele>
        <time>2023-10-29T17:43:38Z</time>
      </trkpt>
      <trkpt lat="47.06727" lon="-1.39993">
        <ele>45</ele>
        <time>2023-10-29T17:44:53Z</time>
      </trkpt>
      <trkpt lat="47.06614" lon="-1.39892">
        <ele>43</ele>
        <time>2023-10-29T17:47:49Z</time>
      </trkpt>
      <trkpt lat="47.06565" lon="-1.398">
        <ele>43</ele>
        <time>2023-10-29T17:49:35Z</time>
      </trkpt>
      <trkpt lat="47.06533" lon="-1.39696">
        <ele>42</ele>
        <time>2023-10-29T17:51:19Z</time>
      </trkpt>
      <trkpt lat="47.06621" lon="-1.39494">
        <ele>38</ele>
        <time>2023-10-29T17:54:57Z</time>
      </trkpt>
      <trkpt lat="47.06617" lon="-1.39358">
        <ele>36</ele>
        <time>2023-10-29T17:57:01Z</time>
      </trkpt>
      <trkpt lat="47.06664" lon="-1.39274">
        <ele>37</ele>
        <time>2023-10-29T17:58:40Z</time>
      </trkpt>
      <trkpt lat="47.06699" lon="-1.39202">
        <ele>37</ele>
        <time>2023-10-29T18:00:00Z</time>
      </trkpt>
      <trkpt lat="47.06405" lon="-1.38996">
        <ele>29</ele>
        <time>2023-10-29T18:07:15Z</time>
      </trkpt>
      <trkpt lat="47.06112" lon="-1.38671">
        <ele>31</ele>
        <time>2023-10-29T18:15:25Z</time>
      </trkpt>
      <trkpt lat="47.05744" lon="-1.38233">
        <ele>28</ele>
        <time>2023-10-29T18:25:57Z</time>
      </trkpt>
      <trkpt lat="47.05846" lon="-1.38136">
        <ele>27</ele>
        <time>2023-10-29T18:28:39Z</time>
      </trkpt>
      <trkpt lat="47.05937" lon="-1.3803">
        <ele>26</ele>
        <time>2023-10-29T18:31:14Z</time>
      </trkpt>
      <trkpt lat="47.05868" lon="-1.37947">
        <ele>28</ele>
        <time>2023-10-29T18:33:13Z</time>
      </trkpt>
      <trkpt lat="47.05916" lon="-1.37876">
        <ele>27</ele>
        <time>2023-10-29T18:34:44Z</time>
      </trkpt>
      <trkpt lat="47.05934" lon="-1.37932">
        <ele>26</ele>
        <time>2023-10-29T18:35:40Z</time>
      </trkpt>
      <trkpt lat="47.0595" lon="-1.3794">
        <ele>26</ele>
        <time>2023-10-29T18:36:03Z</time>
      </trkpt>
      <trkpt lat="47.05984" lon="-1.37904">
        <ele>25</ele>
        <time>2023-10-29T18:36:59Z</time>
      </trkpt>
      <trkpt lat="47.05997" lon="-1.37923">
        <ele>24</ele>
        <time>2023-10-29T18:37:23Z</time>
      </trkpt>
      <trkpt lat="47.06029" lon="-1.37921">
        <ele>24</ele>
        <time>2023-10-29T18:38:06Z</time>
      </trkpt>
      <trkpt lat="47.06058" lon="-1.37906">
        <ele>24</ele>
        <time>2023-10-29T18:38:47Z</time>
      </trkpt>
      <trkpt lat="47.06125" lon="-1.37801">
        <ele>26</ele>
        <time>2023-10-29T18:40:58Z</time>
      </trkpt>
      <trkpt lat="47.06113" lon="-1.37693">
        <ele>28</ele>
        <time>2023-10-29T18:42:37Z</time>
      </trkpt>
      <trkpt lat="47.06104" lon="-1.37612">
        <ele>27</ele>
        <time>2023-10-29T18:43:52Z</time>
      </trkpt>
      <trkpt lat="47.06101" lon="-1.37558">
        <ele>24</ele>
        <time>2023-10-29T18:44:41Z</time>
      </trkpt>
      <trkpt lat="47.06113" lon="-1.37513">
        <ele>21</ele>
        <time>2023-10-29T18:45:25Z</time>
      </trkpt>
      <trkpt lat="47.06128" lon="-1.3751">
        <ele>21</ele>
        <time>2023-10-29T18:45:45Z</time>
      </trkpt>
      <trkpt lat="47.06244" lon="-1.37522">
        <ele>20</ele>
        <time>2023-10-29T18:48:21Z</time>
      </trkpt>
      <trkpt lat="47.06294" lon="-1.37537">
        <ele>21</ele>
        <time>2023-10-29T18:49:29Z</time>
      </trkpt>
      <trkpt lat="47.0635" lon="-1.37561">
        <ele>22</ele>
        <time>2023-10-29T18:50:47Z</time>
      </trkpt>
      <trkpt lat="47.06413" lon="-1.37575">
        <ele>21</ele>
        <time>2023-10-29T18:52:12Z</time>
      </trkpt>
      <trkpt lat="47.06466" lon="-1.37582">
        <ele>20</ele>
        <time>2023-10-29T18:53:23Z</time>
      </trkpt>
      <trkpt lat="47.06486" lon="-1.37586">
        <ele>20</ele>
        <time>2023-10-29T18:53:50Z</time>
      </trkpt>
      <trkpt lat="47.06507" lon="-1.37596">
        <ele>20</ele>
        <time>2023-10-29T18:54:19Z</time>
      </trkpt>
      <trkpt lat="47.06542" lon="-1.37598">
        <ele>20</ele>
        <time>2023-10-29T18:55:06Z</time>
      </trkpt>
      <trkpt lat="47.0658" lon="-1.37607">
        <ele>21</ele>
        <time>2023-10-29T18:55:57Z</time>
      </trkpt>
      <trkpt lat="47.06638" lon="-1.37629">
        <ele>20</ele>
        <time>2023-10-29T18:57:17Z</time>
      </trkpt>
      <trkpt lat="47.0665" lon="-1.37641">
        <ele>20</ele>
        <time>2023-10-29T18:57:36Z</time>
      </trkpt>
      <trkpt lat="47.06687" lon="-1.37691">
        <ele>21</ele>
        <time>2023-10-29T18:58:44Z</time>
      </trkpt>
      <trkpt lat="47.06689" lon="-1.3771">
        <ele>22</ele>
        <time>2023-10-29T18:59:01Z</time>
      </trkpt>
      <trkpt lat="47.06668" lon="-1.37768">
        <ele>23</ele>
        <time>2023-10-29T19:00:01Z</time>
      </trkpt>
      <trkpt lat="47.06636" lon="-1.37777">
        <ele>25</ele>
        <time>2023-10-29T19:00:44Z</time>
      </trkpt>
      <trkpt lat="47.06635" lon="-1.37809">
        <ele>26</ele>
        <time>2023-10-29T19:01:13Z</time>
      </trkpt>
      <trkpt lat="47.06628" lon="-1.3785">
        <ele>28</ele>
        <time>2023-10-29T19:01:52Z</time>
      </trkpt>
      <trkpt lat="47.06622" lon="-1.37932">
        <ele>30</ele>
        <time>2023-10-29T19:03:07Z</time>
      </trkpt>
      <trkpt lat="47.06627" lon="-1.3801">
        <ele>30</ele>
        <time>2023-10-29T19:04:18Z</time>
      </trkpt>
      <trkpt lat="47.06651" lon="-1.38101">
        <ele>28</ele>
        <time>2023-10-29T19:05:47Z</time>
      </trkpt>
      <trkpt lat="47.06675" lon="-1.38176">
        <ele>27</ele>
        <time>2023-10-29T19:07:02Z</time>
      </trkpt>
      <trkpt lat="47.06699" lon="-1.38265">
        <ele>25</ele>
        <time>2023-10-29T19:08:29Z</time>
      </trkpt>
      <trkpt lat="47.06721" lon="-1.38325">
        <ele>25</ele>
        <time>2023-10-29T19:09:31Z</time>
      </trkpt>
      <trkpt lat="47.06773" lon="-1.38427">
        <ele>27</ele>
        <time>2023-10-29T19:11:27Z</time>
      </trkpt>
      <trkpt lat="47.06807" lon="-1.38502">
        <ele>24</ele>
        <time>2023-10-29T19:12:49Z</time>
      </trkpt>
      <trkpt lat="47.06822" lon="-1.38541">
        <ele>22</ele>
        <time>2023-10-29T19:13:29Z</time>
      </trkpt>
      <trkpt lat="47.06838" lon="-1.38525">
        <ele>20</ele>
        <time>2023-10-29T19:13:55Z</time>
      </trkpt>
      <trkpt lat="47.06848" lon="-1.38546">
        <ele>21</ele>
        <time>2023-10-29T19:14:18Z</time>
      </trkpt>
      <trkpt lat="47.06867" lon="-1.38553">
        <ele>21</ele>
        <time>2023-10-29T19:14:45Z</time>
      </trkpt>
      <trkpt lat="47.06888" lon="-1.38583">
        <ele>20</ele>
        <time>2023-10-29T19:15:24Z</time>
      </trkpt>
      <trkpt lat="47.06921" lon="-1.38638">
        <ele>20</ele>
        <time>2023-10-29T19:16:30Z</time>
      </trkpt>
      <trkpt lat="47.06929" lon="-1.38657">
        <ele>20</ele>
        <time>2023-10-29T19:16:51Z</time>
      </trkpt>
      <trkpt lat="47.0693" lon="-1.38689">
        <ele>22</ele>
        <time>2023-10-29T19:17:20Z</time>
      </trkpt>
      <trkpt lat="47.0694" lon="-1.38696">
        <ele>22</ele>
        <time>2023-10-29T19:17:34Z</time>
      </trkpt>
      <trkpt lat="47.06951" lon="-1.38706">
        <ele>22</ele>
        <time>2023-10-29T19:17:52Z</time>
      </trkpt>
      <trkpt lat="47.06967" lon="-1.38719">
        <ele>21</ele>
        <time>2023-10-29T19:18:16Z</time>
      </trkpt>
      <trkpt lat="47.07005" lon="-1.38762">
        <ele>20</ele>
        <time>2023-10-29T19:19:20Z</time>
      </trkpt>
      <trkpt lat="47.07051" lon="-1.38836">
        <ele>20</ele>
        <time>2023-10-29T19:20:51Z</time>
      </trkpt>
      <trkpt lat="47.07092" lon="-1.38925">
        <ele>21</ele>
        <time>2023-10-29T19:22:29Z</time>
      </trkpt>
      <trkpt lat="47.07144" lon="-1.38991">
        <ele>22</ele>
        <time>2023-10-29T19:24:01Z</time>
      </trkpt>
      <trkpt lat="47.07166" lon="-1.39036">
        <ele>25</ele>
        <time>2023-10-29T19:24:51Z</time>
      </trkpt>
      <trkpt lat="47.0719" lon="-1.39097">
        <ele>29</ele>
        <time>2023-10-29T19:25:55Z</time>
      </trkpt>
      <trkpt lat="47.072" lon="-1.39183">
        <ele>35</ele>
        <time>2023-10-29T19:27:14Z</time>
      </trkpt>
      <trkpt lat="47.07219" lon="-1.39286">
        <ele>36</ele>
        <time>2023-10-29T19:28:51Z</time>
      </trkpt>
      <trkpt lat="47.07261" lon="-1.39343">
        <ele>36</ele>
        <time>2023-10-29T19:30:08Z</time>
      </trkpt>
      <trkpt lat="47.07329" lon="-1.39444">
        <ele>36</ele>
        <time>2023-10-29T19:32:17Z</time>
      </trkpt>
      <trkpt lat="47.074" lon="-1.39554">
        <ele>33</ele>
        <time>2023-10-29T19:34:34Z</time>
      </trkpt>
      <trkpt lat="47.07454" lon="-1.3964">
        <ele>35</ele>
        <time>2023-10-29T19:36:21Z</time>
      </trkpt>
      <trkpt lat="47.07463" lon="-1.39655">
        <ele>36</ele>
        <time>2023-10-29T19:36:39Z</time>
      </trkpt>
      <trkpt lat="47.07467" lon="-1.39645">
        <ele>35</ele>
        <time>2023-10-29T19:36:49Z</time>
      </trkpt>
      <trkpt lat="47.07497" lon="-1.39685">
        <ele>37</ele>
        <time>2023-10-29T19:37:43Z</time>
      </trkpt>
      <trkpt lat="47.07509" lon="-1.39703">
        <ele>38</ele>
        <time>2023-10-29T19:38:06Z</time>
      </trkpt>
      <trkpt lat="47.07524" lon="-1.39702">
        <ele>38</ele>
        <time>2023-10-29T19:38:26Z</time>
      </trkpt>
      <trkpt lat="47.07554" lon="-1.39701">
        <ele>38</ele>
        <time>2023-10-29T19:39:06Z</time>
      </trkpt>
      <trkpt lat="47.07579" lon="-1.39717">
        <ele>40</ele>
        <time>2023-10-29T19:39:43Z</time>
      </trkpt>
      <trkpt lat="47.0758" lon="-1.39729">
        <ele>41</ele>
        <time>2023-10-29T19:39:54Z</time>
      </trkpt>
      <trkpt lat="47.07624" lon="-1.39743">
        <ele>40</ele>
        <time>2023-10-29T19:40:54Z</time>
      </trkpt>
      <trkpt lat="47.07662" lon="-1.39743">
        <ele>39</ele>
        <time>2023-10-29T19:41:45Z</time>
      </trkpt>
      <trkpt lat="47.07695" lon="-1.39746">
        <ele>38</ele>
        <time>2023-10-29T19:42:29Z</time>
      </trkpt>
      <trkpt lat="47.07709" lon="-1.3975">
        <ele>37</ele>
        <time>2023-10-29T19:42:48Z</time>
      </trkpt>
      <trkpt lat="47.07716" lon="-1.3977">
        <ele>38</ele>
        <time>2023-10-29T19:43:08Z</time>
      </trkpt>
      <trkpt lat="47.07734" lon="-1.39779">
        <ele>38</ele>
        <time>2023-10-29T19:43:34Z</time>
      </trkpt>
    </trkseg>
  </trk>
</gpx>